Regional Weather Roundup
Issued by NWS

Home | Current Version | Previous Version | Graphics & Text | Print | Product List | Glossary Off
Versions: 1 2 3 4 5 6 7 8 9 10 11 12 13 14 15 16 17 18 19 20 21 22 23 24 25 26 27 28 29 30 31 32 33 34 35 36 37 38 39 40 41 42 43 44 45 46 47 48 49 50

948
ASUS43 KMKX 242100
RWRWI

WISCONSIN REGIONAL WEATHER ROUNDUP
NATIONAL WEATHER SERVICE MILWAUKEE/SULLIVAN WI
400 PM CDT WED AUG 24 2016

NOTE: "FAIR" INDICATES FEW OR NO CLOUDS BELOW 12,000 FEET WITH NO
SIGNIFICANT WEATHER AND/OR OBSTRUCTIONS TO VISIBILITY.

WIZ001-002-006>008-014>016-023>028-242200-
NORTHWEST WISCONSIN

CITY           SKY/WX    TMP DP  RH WIND       PRES   REMARKS
SUPERIOR ARPT  MOSUNNY   81  55  40 W15G21    29.83R HX  81
ASHLAND        CLOUDY    78  67  68 W12       29.84R HX  80
HAYWARD        CLOUDY    77  65  66 W10       29.89S
SIREN          CLOUDY    79  54  41 W12G18    29.90S
CUMBERLAND     MOSUNNY   77  61  57 W14       29.91S
RICE LAKE      MOSUNNY   76  65  66 W7        29.92S
CHETEK         NOT AVBL
LADYSMITH      PTSUNNY   77  67  71 W12       29.92S
EAU CLAIRE     NOT AVBL
MENOMONIE      MOSUNNY   78  65  63 W10       29.92R HX  80
NEW RICHMOND   CLOUDY    78  59  52 W6        29.93R
OSCEOLA        MOSUNNY   79  57  45 W10       29.94S HX  80
$$

WIZ003>005-009-010-017-018-242200-
NORTH CENTRAL WISCONSIN

CITY           SKY/WX    TMP DP  RH WIND       PRES   REMARKS
MANITOWISH WTR NOT AVBL
ARBOR VITAE    CLOUDY    74  67  77 W13G18    29.89R
WOODRUFF       CLOUDY    74  67  77 W13G18    29.89R
RHINELANDER    CLOUDY    74  67  78 W14G25    29.89S
EAGLE RIVER    CLOUDY    73  69  87 W8        29.87S
LAND O LAKES   CLOUDY    73  65  76 W6        29.88R
PHILLIPS       CLOUDY    72  66  82 W6        29.90R
TOMAHAWK       CLOUDY    75  64  68 W10G17    29.90R
MEDFORD        CLOUDY    74  67  79 W13G18    29.91R
MERRILL        PTSUNNY   79  67  67 W12G21    29.89R HX  81
$$

WIZ029-030-035-036-043>047-242200-
CENTRAL WISCONSIN

CITY           SKY/WX    TMP DP  RH WIND       PRES   REMARKS
WAUSAU         PTSUNNY   79  66  64 W14       29.88R HX  81
MOSINEE        PTSUNNY   75  72  88 SW10      29.91S
MARSHFIELD     PTSUNNY   78  65  63 W12       29.91R HX  80
STEVENS POINT  PTSUNNY   73  69  87 W7        29.91S
WAUPACA        CLOUDY    79  73  81 W10G17    29.90R HX  83
WAUTOMA        CLOUDY    76  72  87 W13       29.90S
WISC RAPIDS    PTSUNNY   78  72  81 W13       29.92S HX  80
CAMP DOUGLAS   NOT AVBL
$$

WIZ011>013-019>022-031-037>040-048>050-242200-
NORTHEAST WISCONSIN

CITY           SKY/WX    TMP DP  RH WIND       PRES   REMARKS
ANTIGO         CLOUDY    74  67  77 W16       29.89R
SHAWANO        CLOUDY    78  70  76 W12G20    29.87S HX  81
OCONTO         NOT AVBL
STURGEON BAY   LGT RAIN  75  70  84 W7          N/A
GREEN BAY      CLOUDY    78  73  84 W8        29.86S HX  81
MANITOWOC      NOT AVBL
APPLETON       CLOUDY    79  68  69 SW13G21   29.87S HX  81
CLINTONVILLE   CLOUDY    75  70  83 W9        29.88S
OSHKOSH        CLOUDY    80  71  74 VRB7G20   29.88R HX  84
$$

WIZ032>034-041-042-053>061-242200-
SOUTHWEST WISCONSIN

CITY           SKY/WX    TMP DP  RH WIND       PRES   REMARKS
LA CROSSE      PTSUNNY   85 N/A N/A NW13      29.90S
SPARTA         PTSUNNY   80  72  76 W7        29.92S HX  83
VIROQUA        PTSUNNY   80  72  75 SW8       29.93F HX  84
BOSCOBEL       PTSUNNY   87  73  62 W7        29.89F HX  94
PRAIRIE DU CHI CLOUDY    84  71  65 W14       29.90S HX  89
PLATTEVILLE    MOSUNNY   85  74  70 SW13      29.93S HX  92
$$

WIZ056-057-062-063-064-067-068-242200-
SOUTH CENTRAL WISCONSIN

CITY           SKY/WX    TMP DP  RH WIND       PRES   REMARKS
REEDSBURG      NOT AVBL
BARABOO/DELLS  CLOUDY    79  71  74 W8        29.91F HX  82
LONE ROCK      NOT AVBL
MINERAL POINT  PTSUNNY   84  73  70 W7        29.93S HX  91
MADISON        PTSUNNY   82  71  69 SW9       29.90F HX  86
MIDDLETON      MOSUNNY   85  73  67 SW10      29.92S HX  91
WATERTOWN      MOSUNNY   82  73  73 SW13G18   29.90S HX  88
MONROE         MOSUNNY   82  70  65 W12G17    29.93S HX  86
JANESVILLE     MOSUNNY   84  72  65 SW12      29.91S HX  89
$$

WIZ051-052-058>065-066-070>072-242200-
SOUTHEAST WISCONSIN

CITY           SKY/WX    TMP DP  RH WIND       PRES   REMARKS
MILWAUKEE      CLOUDY    85  70  60 SW10      29.89F HX  89
WAUKESHA       MOSUNNY   81  70  69 W12       29.92S HX  84
MILWAUKEE/TIMM MOSUNNY   82  66  57 W13G20    29.90S HX  85
RACINE         CLOUDY    83  71  67 SW8       29.91F HX  87
BURLINGTON     MOSUNNY   81  68  64 W8G17     29.92R HX  84
KENOSHA        CLOUDY    83  71  67 W15G22    29.91S HX  87
FOND DU LAC    CLOUDY    80  72  76 W6        29.89S HX  84
SHEBOYGAN      PTSUNNY   82  69  64 SW17      29.88S HX  85
WEST BEND      CLOUDY    81  68  65 W10G17    29.90S HX  83
JUNEAU         PTSUNNY   82  72  73 W13       29.91F HX  86
$$

LSZ147-162-242200-
LAKE SUPERIOR

STATION/POSITION TIME  TEMP    WIND        PRES    WAVE
                       AIR SEA DIR/SP/G            HT/PER
                 (UTC) (F)     (DEG/KT/KT) (MB)    (FT/S)
W MID LAKE BUOY  1950   69 69  240/ 10/ 12 1007.9F
DEVILS ISLAND    2000   71     230/ 19/ 22 1008.7F
PORT WING        1840   74     270/ 13/ 16 1009.8F
SAXON HARBOR     2000   76      80/  2/  4 1009.8R
$$

LMZ867-665-643>646-242200-
LAKE MICHIGAN

STATION/POSITION TIME  TEMP    WIND        PRES    WAVE
                       AIR SEA DIR/SP/G            HT/PER
                 (UTC) (F)     (DEG/KT/KT) (MB)    (FT/S)
CHAMBERS ISLAND  2040   71     190/  7/ 10 1010.5F
S GREEN BAY BUOY 2000   75 73  230/ 10/ 12 1010.5
N MID LAKE BUOY  1950   71 71  210/ 16/ 17 1009.6F   7/ 8
NORTHPORT PIER   1900   69     150/  5/  7 1010.8R
SISTER BAY       2007   76     250/ 13/ 17   N/A
KEWAUNEE LAKESHO 2000          170/ 12/ 14 1010.7S
SHEBOYGAN LAKESH 2000   73     220/ 16/ 24 1010.9F
PORT WASHINGTON  2040   85     280/  6/ 12 1012.5F
ATWATER BUOY     2000   72 46  230/ 10/ 16   N/A
MILWAUKEE LAKESH 2010   79     230/ 15/ 18   N/A
S MID LAKE BUOY  1950   74 74  190/ 12/ 16 1012.5F   3/ 6
KENOSHA   LAKESH 2000   79     240/ 11/ 18 1012.5F
$$

TC  - TEMPERATURE IN CELSIUS
VSB - VISIBILITY IN STATUTE MILES
WCI - WIND CHILL INDEX
HX  - HEAT INDEX





USA.gov is the U.S. government's official web portal to all federal, state and local government web resources and services.